CW8428 Weather Reports


Display with metric or nautical units.
time (UTC)temp
F
wind
direction
speed
MPH
gust
MPH
rain 1hr
in
rain 24hr
in
rain mn
in
humidity
%
barometer
mb
20260506032616 50 239 2.0 3.0 0.00 0.11 0.11 78 1009.7
20260506031626 49 240 1.0 3.0 0.00 0.11 0.11 78 1009.5
20260506030617 49 240 2.0 4.0 0.00 0.11 0.11 78 1009.5
20260506025621 49 269 3.0 4.0 0.00 0.11 0.11 76 1009.4
20260506024631 50 267 2.0 3.0 0.00 0.11 0.11 74 1009.4
20260506023622 51 267 3.0 6.0 0.00 0.11 0.11 72 1009.0
20260506022634 53 257 4.0 7.0 0.00 0.11 0.11 68 1008.9
20260506021646 55 210 0.0 3.0 0.00 0.11 0.11 64 1008.7
20260506020614 56 209 1.0 2.0 0.00 0.11 0.11 60 1008.7
20260506015630 58 209 2.0 3.0 0.00 0.11 0.11 60 1008.5
20260506014618 58 209 0.0 0.0 0.00 0.11 0.11 57 1008.5
20260506013627 58 209 1.0 2.0 0.00 0.11 0.11 56 1008.5
20260506012620 59 209 1.0 3.0 0.00 0.11 0.11 54 1008.5
20260506011629 59 181 1.0 3.0 0.00 0.11 0.11 55 1008.5
20260506010617 59 171 1.0 4.0 0.00 0.11 0.11 56 1008.5
20260506005618 59 265 1.0 4.0 0.00 0.11 0.11 57 1008.6
20260506004628 59 227 2.0 5.0 0.00 0.11 0.11 57 1008.6
20260506003618 59 232 4.0 5.0 0.00 0.11 0.11 56 1008.7
20260506002629 59 229 3.0 6.0 0.00 0.11 0.11 59 1008.7
20260506001623 58 175 4.0 7.0 0.00 0.11 0.11 58 1008.7
20260506000614 59 171 4.0 6.0 0.00 0.11 0.11 59 1008.8
20260505235616 58 128 1.0 6.0 0.00 0.11 0.11 59 1008.8
20260505234624 58 145 1.0 3.0 0.00 0.11 0.11 60 1008.9
20260505233617 58 125 1.0 6.0 0.00 0.11 0.11 61 1009.0
20260505232647 58 32 3.0 6.0 0.00 0.11 0.11 60 1009.1
20260505231632 57 168 1.0 5.0 0.00 0.11 0.11 62 1009.1
20260505230638 56 184 1.0 7.0 0.00 0.11 0.11 65 1009.3
20260505225616 56 198 2.0 9.0 0.00 0.11 0.11 65 1009.5
20260505224630 55 191 2.0 6.0 0.00 0.11 0.11 68 1009.6
20260505223618 54 173 5.0 8.0 0.00 0.11 0.11 67 1009.7
20260505222626 54 197 2.0 5.0 0.00 0.11 0.11 69 1009.8
20260505221613 53 180 2.0 7.0 0.00 0.11 0.11 73 1010.1
20260505220625 52 146 2.0 9.0 0.00 0.11 0.11 75 1010.2
20260505215645 52 163 5.0 9.0 0.00 0.11 0.11 75 1010.5
20260505214615 52 159 2.0 6.0 0.00 0.11 0.11 77 1010.6
20260505213645 51 46 2.0 5.0 0.01 0.11 0.11 79 1010.8
20260505212650 50 94 3.0 6.0 0.02 0.11 0.11 81 1011.0
20260505211622 49 141 3.0 7.0 0.03 0.11 0.11 81 1011.2
20260505210613 48 101 2.0 7.0 0.04 0.11 0.11 83 1011.2
20260505205613 48 102 4.0 7.0 0.04 0.11 0.11 86 1011.4
20260505204623 47 96 3.0 8.0 0.04 0.10 0.10 86 1011.6
20260505203637 47 98 5.0 10.0 0.04 0.10 0.10 85 1011.7
20260505202625 47 74 6.0 9.0 0.03 0.09 0.09 84 1012.0
20260505201636 47 89 5.0 9.0 0.02 0.08 0.08 83 1011.9
20260505200625 48 104 3.0 9.0 0.01 0.07 0.07 82 1011.9
20260505195630 48 119 6.0 9.0 0.00 0.06 0.06 80 1011.7
20260505194621 48 92 4.0 6.0 0.00 0.06 0.06 78 1011.7
20260505193631 48 29 6.0 8.0 0.00 0.06 0.06 78 1011.5
20260505192641 48 74 3.0 9.0 0.00 0.06 0.06 79 1011.5
20260505191652 47 101 3.0 11.0 0.01 0.06 0.06 79 1011.6
20260505190621 47 119 9.0 12.0 0.02 0.06 0.06 79 1011.5
20260505185620 46 90 8.0 13.0 0.03 0.06 0.06 81 1011.5
20260505184627 46 89 11.0 14.0 0.04 0.06 0.06 82 1011.6
20260505183614 45 100 10.0 14.0 0.05 0.06 0.06 83 1011.5
20260505182637 45 27 9.0 13.0 0.06 0.06 0.06 84 1011.4
20260505181643 45 62 7.0 14.0 0.05 0.05 0.05 83 1011.4
20260505180636 46 20 8.0 14.0 0.04 0.04 0.04 81 1011.4
20260505175615 47 57 9.0 17.0 0.03 0.03 0.03 78 1011.2
20260505174644 47 80 7.0 18.0 0.02 0.02 0.02 80 1011.1
20260505173630 48 114 10.0 15.0 0.01 0.01 0.01 82 1011.0
20260505172622 48 113 6.0 14.0 0.00 0.00 0.00 83 1010.8
20260505171629 48 102 8.0 15.0 0.00 0.00 0.00 82 1010.7
20260505170618 49 111 8.0 14.0 0.00 0.00 0.00 80 1010.5
20260505165620 49 92 7.0 14.0 0.00 0.00 0.00 78 1010.4
20260505164631 50 92 9.0 14.0 0.00 0.00 0.00 76 1010.2
20260505163620 50 107 9.0 13.0 0.00 0.00 0.00 75 1010.2
20260505162630 50 99 9.0 12.0 0.00 0.00 0.00 75 1010.1
20260505161622 49 107 7.0 13.0 0.00 0.00 0.00 75 1010.2
20260505160630 50 125 8.0 12.0 0.00 0.00 0.00 75 1010.0
20260505152637 50 122 10.0 14.0 0.00 0.00 0.00 75 1009.8
20260505151622 51 90 8.0 11.0 0.00 0.00 0.00 74 1009.8
20260505150632 51 97 4.0 8.0 0.00 0.00 0.00 72 1009.8
20260505140620 52 95 5.0 10.0 0.00 0.00 0.00 67 1009.6
20260505124628 47 277 0.0 4.0 0.00 0.00 0.00 78 1008.8
20260505123619 47 277 1.0 2.0 0.00 0.00 0.00 79 1008.8
20260505122628 47 277 2.0 4.0 0.00 0.00 0.00 77 1008.7
20260505121616 48 323 2.0 3.0 0.00 0.00 0.00 75 1008.7
20260505120626 48 323 1.0 2.0 0.00 0.00 0.00 74 1008.7
20260505115630 48 323 0.0 0.0 0.00 0.00 0.00 74 1008.7
20260505114621 48 323 0.0 0.0 0.00 0.00 0.00 74 1008.7
20260505113632 48 323 0.0 0.0 0.00 0.00 0.00 74 1008.7
20260505112626 48 323 0.0 2.0 0.00 0.00 0.00 74 1008.7
20260505111616 47 325 3.0 4.0 0.00 0.00 0.00 74 1008.5
20260505110626 47 319 3.0 4.0 0.00 0.00 0.00 74 1008.6
20260505101633 50 101 1.0 4.0 0.00 0.00 0.00 65 1008.5
20260505100626 50 76 1.0 3.0 0.00 0.00 0.00 65 1008.5
20260505095625 51 27 3.0 9.0 0.00 0.00 0.00 64 1008.6
20260505094652 50 140 6.0 10.0 0.00 0.00 0.00 63 1008.6
20260505093620 51 146 4.0 11.0 0.00 0.00 0.00 64 1008.5
20260505092627 51 110 10.0 12.0 0.00 0.00 0.00 61 1008.5
20260505091628 51 105 3.0 9.0 0.00 0.00 0.00 62 1008.5
20260505090614 50 102 9.0 11.0 0.00 0.00 0.00 64 1008.5
20260505085612 50 110 0.0 1.0 0.00 0.00 0.00 66 1008.6
20260505084624 50 110 2.0 7.0 0.00 0.00 0.00 66 1008.7
20260505083614 50 148 4.0 8.0 0.00 0.00 0.00 65 1008.8
20260505082644 49 124 4.0 7.0 0.00 0.00 0.00 68 1008.8
20260505081653 48 178 0.0 4.0 0.00 0.00 0.00 71 1008.8
20260505080641 48 165 2.0 4.0 0.00 0.00 0.00 72 1008.8
20260505075646 48 165 2.0 4.0 0.00 0.00 0.00 72 1009.0
20260505074613 47 166 1.0 3.0 0.00 0.00 0.00 72 1009.0
20260505073621 47 166 0.0 1.0 0.00 0.00 0.00 71 1008.9
20260505072626 48 166 2.0 3.0 0.00 0.00 0.00 70 1008.9
20260505071640 48 164 1.0 3.0 0.00 0.00 0.00 70 1008.8
20260505070629 48 164 2.0 5.0 0.00 0.00 0.00 69 1008.8
20260505065649 49 164 2.0 2.0 0.00 0.00 0.00 68 1008.8
20260505064616 49 164 0.0 3.0 0.00 0.00 0.00 67 1008.7
20260505063623 50 163 1.0 2.0 0.00 0.00 0.00 65 1008.5
20260505062615 50 163 1.0 3.0 0.00 0.00 0.00 64 1008.4
20260505061623 50 161 2.0 3.0 0.00 0.00 0.00 63 1008.2
20260505060615 51 161 1.0 7.0 0.00 0.00 0.00 62 1008.2
20260505055615 51 152 1.0 3.0 0.00 0.00 0.00 62 1008.1
20260505054644 51 153 1.0 6.0 0.00 0.00 0.00 62 1008.1
20260505053615 51 145 2.0 3.0 0.00 0.00 0.00 61 1008.0
20260505052623 51 145 0.0 3.0 0.00 0.00 0.00 61 1008.1
20260505051613 52 145 0.0 2.0 0.00 0.00 0.00 61 1008.1
20260505050644 52 132 2.0 4.0 0.00 0.00 0.00 60 1008.3
20260505041625 54 263 2.0 3.0 0.00 0.00 0.00 58 1008.0
20260505040616 54 263 2.0 3.0 0.00 0.00 0.00 57 1007.8
20260505035616 56 263 3.0 4.0 0.00 0.00 0.00 53 1007.6
20260505034627 58 233 2.0 9.0 0.00 0.00 0.00 49 1007.6
20260505033621 58 125 6.0 10.0 0.00 0.00 0.00 44 1007.3